Roseburg, OR

8:45 PM PDT on September 22, 2019 (GMT -0700)
Roseburg Regional

Weather History for KRBG - August, 2019

Change the Weather History Date:

Sunday, August 25, 2019

  Actual Average Record
Temperature  
Mean Temperature 75 °F 69 °F  
Max Temperature 87 °F 84 °F 103 °F (2010)
Min Temperature 62 °F 55 °F 44 °F (1955)
Degree Days  
Heating Degree Days 0 0  
Month to date heating degree days 3 0  
Since 1 June heating degree days 40 94  
Since 1 July heating degree days 5 11  
Cooling Degree Days 10 5  
Month to date cooling degree days 186 143  
Year to date cooling degree days 535 386  
Since 1 June cooling degree days 506 366  
Growing Degree Days 24 (Base 50)    
Moisture  
Dew Point 52 °F    
Average Humidity 54    
Maximum Humidity 84    
Minimum Humidity 23    
Precipitation  
Precipitation 0.00 in 0.02 in 0.57 in (1953)
Month to date precipitation 1.08 0.31  
Year to date precipitation 22.77 19.49  
Sea Level Pressure  
Sea Level Pressure 30.08 in    
Wind  
Wind Speed 6 mph (North)    
Max Wind Speed 21 mph    
Max Gust Speed 24 mph    
Visibility 10 miles    
Events      
T = Trace of Precipitation, MM = Missing Value Source: NWS Daily Summary

Daily Weather History Graph

Daily Weather History Graph

Search for Another Location

Airport or City:

Astronomy

Aug. 25, 2019 Rise Set
Actual Time 6:29 AM PDT 8:00 PM PDT
Civil Twilight 5:59 AM PDT 8:30 PM PDT
Nautical Twilight 5:23 AM PDT 9:06 PM PDT
Astronomical Twilight 4:45 AM PDT 9:44 PM PDT
Moon 1:03 AM PDT (8/25) 4:33 PM PDT (8/25)
Length of Visible Light 14h 30m
Length of Day
13h 30m
Waning Crescent, 28% of the Moon is Illuminated
Aug 25
Waning Crescent
Aug 30
New
Sep 5
First Quarter
Sep 13
Full
Sep 21
Last Quarter

Hourly Weather History & Observations

Time (PDT) Temp. Heat Index Dew Point Humidity Pressure Visibility Wind Dir Wind Speed Gust Speed Precip Events Conditions
12:53 AM 66.9 °F - 57.0 °F 70% 30.03 in 10.0 mi Calm Calm - N/A   Clear
1:53 AM 64.0 °F - 57.0 °F 78% 30.03 in 10.0 mi Calm Calm - N/A   Clear
2:53 AM 62.1 °F - 55.9 °F 80% 30.05 in 10.0 mi Calm Calm - N/A   Clear
3:53 AM 63.0 °F - 57.0 °F 81% 30.06 in 10.0 mi Calm Calm - N/A   Overcast
4:42 AM 64.0 °F - 57.0 °F 78% 30.08 in 10.0 mi North 5.8 mph - N/A   Overcast
4:53 AM 64.0 °F - 55.9 °F 75% 30.08 in 10.0 mi NNW 4.6 mph - N/A   Mostly Cloudy
5:53 AM 63.0 °F - 55.9 °F 78% 30.09 in 10.0 mi Calm Calm - N/A   Overcast
6:53 AM 63.0 °F - 55.9 °F 78% 30.10 in 10.0 mi North 3.5 mph - N/A   Scattered Clouds
7:53 AM 63.0 °F - 55.9 °F 78% 30.12 in 10.0 mi North 3.5 mph - N/A   Clear
8:15 AM 64.0 °F - 55.0 °F 73% 30.12 in 10.0 mi North 5.8 mph - N/A   Mostly Cloudy
8:53 AM 64.9 °F - 55.0 °F 70% 30.12 in 10.0 mi North 4.6 mph - N/A   Overcast
9:53 AM 66.9 °F - 55.9 °F 68% 30.13 in 10.0 mi Calm Calm - N/A   Mostly Cloudy
10:19 AM 69.1 °F - 57.0 °F 65% 30.13 in 10.0 mi Calm Calm - N/A   Scattered Clouds
10:53 AM 71.1 °F - 55.9 °F 59% 30.12 in 10.0 mi Variable 3.5 mph - N/A   Clear
11:53 AM 75.0 °F - 55.9 °F 51% 30.12 in 10.0 mi North 10.4 mph - N/A   Clear
12:53 PM 78.1 °F - 55.9 °F 46% 30.10 in 10.0 mi NNE 10.4 mph - N/A   Clear
1:53 PM 81.0 °F 80.7 °F 55.0 °F 41% 30.08 in 10.0 mi North 8.1 mph 19.6 mph N/A   Clear
2:53 PM 84.0 °F 82.5 °F 53.1 °F 34% 30.07 in 10.0 mi NNE 13.8 mph 19.6 mph N/A   Clear
3:53 PM 86.0 °F - 46.0 °F 25% 30.05 in 10.0 mi North 18.4 mph - N/A   Clear
4:53 PM 86.0 °F - 45.0 °F 24% 30.04 in 10.0 mi North 12.7 mph 20.7 mph N/A   Clear
5:53 PM 84.9 °F - 44.1 °F 24% 30.04 in 10.0 mi North 15.0 mph 23.0 mph N/A   Clear
6:53 PM 82.9 °F - 46.9 °F 28% 30.04 in 10.0 mi NNW 10.4 mph - N/A   Clear
7:53 PM 79.0 °F - 45.0 °F 30% 30.06 in 10.0 mi North 6.9 mph - N/A   Clear
8:53 PM 75.9 °F - 43.0 °F 31% 30.08 in 10.0 mi NNW 6.9 mph - N/A   Clear
9:53 PM 73.9 °F - 44.1 °F 34% 30.09 in 10.0 mi NNW 6.9 mph - N/A   Clear
10:53 PM 71.1 °F - 44.1 °F 38% 30.09 in 10.0 mi Calm Calm - N/A   Clear
11:53 PM 66.9 °F - 46.0 °F 47% 30.09 in 10.0 mi Calm Calm - N/A   Clear